Temperature
20 20 19 19 19 19 18 18 18 18 18 18 18 17 17 17 17 17 17 17 16 16 16 16 16 16 16 16 16 16 16 16 16 16 16 16 16 16 16 16 16 16 15
20 20 19 19 19 19 18 18 18 18 18 18 17 17 17 17 17 17 17 16 16 16 16 16 16 16 16 16 16 16 15 15 15 16 16 16 16 16 16 15 15 15 15
20 19 19 19 19 18 18 18 18 18 17 17 17 17 17 17 17 16 16 16 16 16 16 16 16 16 16 16 15 15 15 15 15 15 15 15 15 15 15 15 15 15 15
19 19 19 19 18 18 18 18 17 17 17 17 17 17 17 17 16 16 16 16 16 16 16 15 15 15 15 15 15 15 15 15 15 15 15 15 15 15 15 15 15 15 15
19 19 18 18 18 18 18 18 17 17 17 17 16 16 16 16 16 16 16 16 16 15 15 15 15 15 15 15 15 15 15 15 15 15 15 15 15 15 15 15 14 14 14
18 18 18 18 18 18 17 17 17 17 17 17 16 16 16 16 16 16 16 16 16 15 15 15 15 15 15 15 15 15 15 15 14 14 14 14 14 14 14 14 14 14 14
18 18 18 17 17 17 17 17 17 17 16 16 16 16 16 16 16 16 15 15 15 15 15 15 15 15 15 15 15 15 15 14 14 14 14 14 14 14 14 14 14 14 14
17 17 17 17 17 17 17 16 16 16 16 16 16 16 16 16 15 15 15 15 15 15 15 15 15 15 15 14 14 14 14 14 14 14 14 14 14 14 14 14 13 13 13
17 17 17 16 16 16 16 16 16 16 16 16 16 15 16 15 15 15 15 15 15 15 15 15 15 15 14 14 14 14 14 14 14 14 13 14 14 13 13 13 13 13 13
16 16 16 16 16 16 16 15 16 15 15 15 15 15 15 15 15 15 14 14 14 14 14 14 14 14 14 14 14 14 14 14 14 13 13 13 13 13 13 13 13 13 12
16 16 15 15 15 15 15 15 15 15 15 14 14 14 14 14 14 14 14 14 14 14 14 14 14 14 14 14 13 13 13 13 13 13 13 13 13 13 13 13 12 12 12
15 15 15 15 15 15 15 14 14 14 14 14 14 14 14 14 14 14 14 14 14 13 13 14 14 14 13 13 13 13 13 12 12 12 12 12 12 12 12 12 12 12 12
15 15 15 14 14 14 14 14 14 14 13 13 13 13 13 13 13 13 13 13 13 13 13 13 13 13 13 13 13 13 12 12 12 12 12 12 12 12 12 12 12 11 11
14 14 14 14 14 14 13 13 13 13 13 13 13 13 13 13 13 13 13 13 13 13 13 13 13 13 13 13 12 12 12 12 12 12 12 12 11 11 11 11 11 11 11
14 14 14 13 13 13 13 13 13 13 13 13 13 13 13 13 13 13 12 13 12 12 12 13 12 12 12 12 12 12 12 12 11 11 11 11 11 11 11 11 10 10 10
13 13 13 13 13 13 12 12 12 12 12 12 12 12 12 12 12 12 12 12 12 12 12 12 12 12 12 12 11 11 11 11 11 11 11 11 11 11 10 10 10 10 10
13 13 12 12 12 12 12 12 12 12 12 12 12 12 12 12 12 12 12 11 11 11 11 11 11 11 11 11 11 11 11 11 11 10 10 11 10 10 10 10 10 10 10
12 12 12 12 12 12 12 12 12 12 12 12 12 11 11 11 11 11 11 11 11 11 11 11 11 10 10 10 10 10 10 10 10 10 10 10 10 10 10 10 10 10 9
12 11 11 11 11 11 11 11 11 11 11 11 11 11 11 11 11 11 11 11 11 10 10 10 10 10 10 10 10 10 10 10 9 10 10 9 9 9 9 9 9 9 9
11 11 11 11 11 11 11 11 11 11 11 11 11 11 11 11 10 10 10 10 10 10 10 10 10 10 10 10 10 9 9 9 9 9 9 9 9 9 9 9 9 9 9
11 11 11 11 11 11 11 11 11 11 11 10 10 10 10 10 10 10 10 10 10 9 9 9 9 9 9 9 9 9 9 9 9 9 9 9 9 9 9 9 9 8 8
11 10 10 10 10 10 10 10 10 10 10 10 10 10 10 10 10 10 9 9 9 9 9 9 9 9 9 9 9 9 9 9 9 9 9 8 8 8 8 8 8 8 8
10 10 10 10 10 10 10 10 10 10 10 10 10 10 10 10 9 9 9 9 9 9 9 9 9 9 9 8 8 8 8 8 8 8 8 8 8 8 8 8 8 8 7
10 10 10 10 10 10 10 10 10 10 9 9 9 9 9 9 9 9 9 9 9 8 8 8 8 8 8 8 8 8 8 8 8 8 8 8 8 8 8 7 7 7 7
10 10 10 10 10 10 10 10 9 9 9 9 9 9 9 9 9 9 9 8 8 8 8 8 8 8 7 7 7 7 7 7 7 7 8 8 7 7 7 7 7 7 7
10 10 10 10 10 9 9 9 9 9 9 9 8 8 8 8 8 8 8 8 8 8 7 7 7 7 7 7 7 7 7 7 7 7 7 7 7 7 7 7 7 7 7
Wind_Speed
7 7 6 6 6 6 6 6 5 5 5 5 4 4 4 4 3 3 4 4 4 3 3 4 4 4 4 4 4 4 4 4 5 4 3 3 3 4 3 4 6 6 6
7 7 6 6 6 5 5 5 5 5 4 4 4 4 4 4 3 4 4 4 4 4 4 4 5 4 4 4 4 5 5 5 5 6 3 3 4 4 3 3 3 4 4
7 6 6 6 6 6 6 5 5 5 4 4 4 5 4 4 4 4 4 4 4 5 5 5 5 4 5 4 5 5 5 5 5 5 4 3 3 2 2 2 2 2 2
7 7 6 6 6 6 5 5 5 5 5 5 5 5 5 5 5 4 4 4 4 4 5 5 5 5 6 6 5 6 5 5 5 4 4 3 3 2 2 2 2 1 2
6 7 6 5 4 4 4 4 4 4 5 4 4 4 4 4 5 5 5 5 5 5 4 5 6 6 6 5 5 6 6 5 5 5 4 3 3 2 3 3 3 2 2
7 6 5 5 5 4 4 4 4 4 4 4 5 5 5 5 5 6 5 5 5 5 5 5 5 5 6 7 7 7 8 7 7 6 5 5 5 5 4 4 3 2 2
6 5 5 5 5 4 4 4 4 4 4 4 5 5 5 6 6 6 6 5 5 5 5 5 4 4 5 5 5 6 7 9 9 7 7 7 6 6 5 5 5 5 4
5 5 5 5 5 4 4 4 4 4 4 5 5 5 5 6 6 6 6 5 5 5 5 5 5 5 4 4 4 4 5 5 7 7 7 7 6 5 6 6 6 4 2
4 4 4 4 4 4 5 5 4 4 4 5 5 5 6 6 5 6 5 4 4 5 5 5 5 5 6 5 4 5 4 4 4 5 6 6 6 6 6 4 4 4 4
3 3 3 3 3 4 5 4 3 3 4 3 4 4 5 6 6 6 6 4 5 5 4 5 6 6 6 5 5 5 6 5 3 3 3 4 4 5 7 6 6 6 4
2 2 2 2 2 3 3 2 2 2 2 2 3 3 3 5 5 6 7 5 5 5 5 5 4 6 6 6 6 6 7 5 3 3 3 2 2 3 3 5 5 6 5
2 2 1 1 1 1 2 2 2 2 2 2 2 3 3 3 4 5 6 6 5 5 5 4 4 5 6 6 5 6 6 4 3 3 3 3 3 3 3 4 6 6 6
2 1 1 1 1 1 2 2 2 2 2 2 2 3 3 3 3 4 4 5 4 3 4 4 4 4 4 4 5 6 4 3 4 4 4 4 4 4 3 3 3 4 4
2 1 1 1 1 1 1 2 2 2 2 3 3 3 3 3 3 2 2 2 3 3 2 2 2 2 2 3 3 3 3 4 5 5 5 4 3 3 3 3 3 3 3
2 1 1 1 1 1 1 1 2 2 3 3 3 3 3 4 5 4 3 3 3 3 2 1 0 1 1 2 2 2 2 3 4 5 5 4 4 4 4 3 3 3 4
1 0 0 0 0 0 0 2 2 1 2 3 4 3 3 5 6 5 3 3 3 2 2 1 2 2 2 3 3 3 3 3 4 4 4 5 5 4 4 3 3 4 4
1 1 0 0 0 0 0 0 2 3 3 3 3 3 3 4 4 3 2 1 2 3 2 2 2 2 3 3 3 3 4 4 3 4 4 4 4 4 3 4 4 4 4
1 0 1 1 1 1 1 1 1 1 2 3 4 4 4 3 3 2 1 1 1 0 1 2 3 3 3 3 4 4 4 3 3 3 4 4 4 4 4 4 4 5 4
1 0 1 1 1 1 1 1 0 0 1 2 3 4 4 3 3 2 1 0 1 2 2 3 3 3 3 4 4 4 4 4 4 4 4 4 4 4 4 4 4 5 4
0 1 0 0 0 0 0 0 0 0 1 1 2 3 3 3 3 2 1 1 1 2 3 3 3 4 4 3 4 4 4 4 4 4 4 4 4 4 4 4 4 4 4
0 0 1 1 0 1 1 1 1 1 1 1 2 3 1 1 2 3 2 2 2 3 3 3 3 3 3 3 3 4 4 4 4 4 4 4 4 4 3 4 4 4 4
0 0 1 0 0 1 0 0 1 1 1 1 2 2 2 1 1 2 3 3 3 3 3 3 3 3 3 3 3 3 4 4 4 4 4 4 3 3 3 3 4 4 3
0 0 1 1 0 1 1 1 0 0 1 1 1 1 2 1 2 2 3 3 3 3 3 3 3 3 3 3 3 3 4 4 4 4 4 4 3 3 3 3 4 3 3
1 1 0 0 1 0 0 0 0 1 1 1 1 2 2 2 2 2 2 3 3 3 3 3 3 3 4 3 3 3 3 4 4 4 4 4 4 3 3 3 3 3 3
1 1 1 0 0 0 1 1 1 1 1 1 2 2 2 2 2 2 2 2 3 3 3 3 3 3 4 4 3 4 4 4 4 3 3 3 3 4 3 3 3 3 3
1 1 1 0 1 1 1 1 2 1 1 1 1 1 1 2 2 2 3 3 3 3 3 3 4 4 5 4 5 5 5 4 4 4 2 2 3 3 3 3 4 4 4
Wind_Direction
179 180 180 184 192 193 194 200 200 202 199 198 194 200 207 208 201 197 210 212 217 231 233 227 237 232 227 220 214 212 216 215 240 257 240 235 224 237 241 232 230 227 229
178 178 182 183 186 193 200 201 195 197 202 202 193 197 203 204 199 200 212 215 215 224 234 230 242 240 232 227 221 223 223 217 223 245 244 223 228 232 233 227 224 221 220
167 174 183 191 193 201 200 196 193 194 198 200 194 203 211 210 208 212 216 218 219 223 227 229 237 231 238 234 229 230 228 224 220 228 242 229 229 225 224 225 211 220 219
168 176 187 194 195 195 194 193 195 193 196 204 207 212 213 212 211 213 214 221 229 235 234 234 233 228 235 236 233 230 225 223 219 222 236 237 227 212 195 211 237 234 235
169 181 194 192 185 183 186 190 193 196 206 208 211 219 220 217 220 213 214 224 231 242 248 247 243 238 235 233 234 228 220 221 218 221 230 230 223 204 211 204 223 234 248
172 183 183 176 178 187 196 191 190 200 205 203 210 216 222 231 229 211 210 224 230 237 245 253 254 247 245 240 238 230 218 217 219 219 224 228 228 220 213 208 206 213 244
171 174 177 180 186 191 198 199 201 209 208 213 219 219 230 239 231 221 216 218 228 235 240 244 251 255 249 255 252 243 234 228 217 213 223 228 225 215 202 210 214 219 234
169 172 174 180 190 191 190 199 208 211 213 221 227 228 234 243 231 222 216 219 229 236 238 238 241 254 254 247 246 250 250 247 234 225 228 232 226 212 205 210 213 220 234
157 168 177 181 191 198 203 210 214 215 225 229 229 231 238 249 238 228 215 228 239 246 244 239 236 244 247 231 226 233 244 252 247 229 231 235 231 221 200 191 194 203 234
170 174 178 181 191 207 212 215 213 212 232 241 245 243 239 244 240 228 211 224 241 251 253 249 242 245 248 228 220 226 238 245 239 242 248 251 241 228 203 202 205 211 227
170 149 166 190 206 216 206 206 206 209 225 250 265 278 264 253 249 231 216 218 231 244 250 255 255 247 246 239 230 229 235 234 232 230 241 252 251 239 223 219 218 216 222
148 160 171 195 221 232 207 209 204 196 210 238 260 286 290 280 262 240 228 225 222 230 243 251 254 251 253 251 240 235 230 221 223 224 235 245 246 247 245 235 227 227 229
147 174 194 197 217 256 217 209 219 210 211 230 245 264 287 298 288 260 241 240 232 228 244 245 252 250 252 252 246 236 218 213 216 226 237 244 243 244 244 245 238 234 242
161 172 176 193 250 302 257 213 210 216 225 234 245 259 275 285 286 282 261 253 257 251 256 252 246 243 242 247 249 236 225 219 220 232 242 249 247 238 236 235 236 232 239
160 160 157 161 195 236 277 258 242 242 234 232 244 246 259 280 277 263 248 247 244 242 235 241 282 295 288 284 275 252 234 225 228 235 238 244 243 237 239 238 232 228 229
153 167 182 161 206 238 2 355 3 326 314 275 259 255 268 260 277 268 249 242 236 211 172 214 246 256 260 265 266 264 255 248 243 240 239 240 242 240 240 233 225 225 231
156 199 226 230 260 259 268 299 334 350 0 352 331 307 285 284 287 280 267 267 233 165 169 229 245 256 261 264 260 257 260 261 256 249 246 243 242 243 241 239 234 233 236
105 197 217 230 241 237 233 242 245 316 340 347 345 332 323 316 306 301 258 102 11 61 243 253 255 260 264 265 262 259 262 265 254 247 248 247 244 242 242 241 236 234 237
113 281 269 252 237 227 215 219 241 269 304 321 336 343 347 349 349 345 49 44 270 272 263 262 264 265 266 264 264 262 257 253 248 243 246 248 245 240 242 242 240 232 234
137 252 304 150 257 227 166 188 237 250 287 310 329 332 348 14 11 355 353 317 287 284 281 276 278 278 275 275 270 263 257 254 250 244 243 244 244 238 234 237 236 237 238
93 317 353 19 296 256 224 212 210 216 258 295 307 315 323 344 320 315 316 307 291 284 281 279 279 280 279 280 275 270 264 257 249 246 248 248 245 238 235 235 235 237 240
102 339 334 322 270 250 224 203 188 211 257 283 307 322 309 321 312 309 308 304 298 289 283 279 282 281 279 277 275 272 270 267 258 248 245 243 239 236 235 238 238 237 237
193 326 331 339 326 345 25 43 67 204 267 275 294 313 323 323 318 316 313 314 316 313 307 297 292 294 295 288 276 265 266 271 271 261 244 234 228 226 226 231 235 240 238
208 222 229 349 359 16 12 350 309 266 263 273 290 296 299 303 312 319 320 319 319 319 317 309 295 294 305 310 308 302 295 293 286 267 252 238 231 228 224 225 230 233 237
180 177 157 173 260 294 283 271 267 275 278 280 293 305 313 314 317 327 329 326 325 325 326 326 323 316 315 317 320 318 318 319 315 301 264 239 236 232 225 226 232 236 237
178 180 191 211 232 244 247 261 270 269 271 279 290 302 310 312 315 322 323 322 323 321 322 326 332 331 329 327 324 327 330 328 322 312 278 242 239 238 234 230 231 232 234
Height
1505 1508 1510 1512 1514 1516 1517 1519 1521 1522 1523 1523 1524 1525 1526 1527 1527 1527 1528 1529 1529 1529 1530 1530 1530 1530 1530 1531 1531 1531 1531 1531 1530 1530 1531 1531 1532 1533 1533 1534 1534 1534 1534
1501 1504 1506 1509 1511 1512 1514 1516 1517 1518 1520 1520 1521 1522 1522 1523 1523 1524 1524 1525 1525 1526 1526 1526 1526 1526 1526 1527 1527 1527 1527 1527 1527 1526 1527 1527 1528 1529 1529 1530 1530 1530 1531
1497 1500 1503 1505 1507 1509 1510 1512 1514 1515 1516 1517 1517 1518 1518 1519 1520 1520 1521 1521 1521 1521 1522 1522 1522 1522 1522 1522 1522 1522 1522 1522 1522 1522 1522 1523 1523 1524 1525 1525 1526 1527 1527
1493 1497 1500 1502 1504 1505 1507 1509 1510 1512 1513 1513 1514 1514 1515 1515 1515 1516 1517 1517 1517 1517 1518 1518 1518 1518 1518 1518 1518 1518 1518 1518 1518 1518 1518 1518 1519 1519 1520 1521 1522 1523 1524
1490 1494 1496 1498 1500 1502 1503 1505 1507 1508 1509 1510 1510 1510 1511 1511 1511 1511 1512 1513 1513 1513 1513 1513 1513 1513 1513 1513 1513 1513 1513 1513 1513 1513 1514 1514 1514 1515 1515 1516 1517 1518 1519
1488 1490 1493 1495 1496 1498 1499 1501 1502 1503 1504 1505 1505 1505 1506 1506 1507 1507 1508 1508 1508 1509 1509 1509 1509 1509 1509 1509 1508 1508 1509 1509 1508 1509 1509 1509 1510 1510 1511 1512 1513 1514 1514
1485 1487 1489 1491 1492 1494 1495 1497 1497 1499 1500 1501 1501 1501 1502 1502 1503 1503 1503 1504 1504 1504 1504 1504 1504 1504 1504 1504 1504 1504 1504 1504 1504 1504 1504 1504 1505 1506 1507 1508 1509 1509 1509
1483 1484 1486 1487 1488 1490 1491 1492 1494 1495 1495 1496 1496 1497 1497 1498 1499 1499 1499 1499 1499 1499 1500 1500 1499 1499 1499 1500 1499 1498 1498 1499 1499 1499 1499 1500 1501 1502 1502 1503 1504 1504 1505
1480 1481 1482 1484 1485 1486 1487 1489 1490 1491 1491 1492 1492 1492 1492 1493 1494 1494 1495 1494 1494 1494 1495 1495 1495 1495 1495 1495 1494 1494 1494 1494 1494 1494 1495 1495 1496 1496 1497 1498 1498 1499 1499
1477 1478 1480 1481 1483 1483 1484 1486 1486 1487 1488 1488 1487 1488 1488 1488 1489 1489 1490 1489 1489 1489 1490 1490 1491 1490 1491 1490 1490 1489 1489 1489 1489 1489 1489 1490 1490 1491 1491 1492 1493 1494 1493
1476 1477 1478 1479 1480 1481 1481 1482 1483 1483 1484 1483 1484 1484 1483 1483 1483 1484 1485 1485 1485 1485 1485 1485 1486 1486 1486 1486 1485 1485 1485 1485 1485 1484 1484 1484 1485 1485 1486 1487 1488 1489 1489
1474 1475 1475 1477 1477 1478 1478 1479 1479 1479 1480 1480 1480 1480 1479 1479 1479 1479 1480 1480 1480 1480 1480 1481 1481 1482 1482 1482 1481 1481 1481 1481 1481 1480 1480 1480 1480 1480 1481 1482 1483 1483 1484
1472 1473 1473 1474 1474 1475 1475 1475 1476 1476 1477 1477 1477 1476 1475 1475 1476 1476 1476 1476 1475 1475 1476 1476 1477 1477 1477 1477 1476 1476 1476 1476 1476 1476 1475 1475 1476 1476 1477 1478 1478 1478 1478
1471 1471 1472 1471 1471 1472 1471 1472 1473 1473 1473 1473 1473 1473 1472 1472 1472 1472 1472 1471 1471 1471 1471 1472 1472 1472 1472 1471 1471 1471 1471 1471 1471 1471 1471 1471 1472 1472 1472 1473 1473 1473 1473
1469 1469 1470 1470 1469 1469 1469 1469 1470 1470 1471 1471 1471 1470 1469 1468 1469 1469 1468 1467 1467 1467 1466 1466 1466 1466 1466 1466 1466 1466 1467 1467 1467 1467 1467 1467 1467 1467 1468 1469 1469 1469 1469
1467 1467 1468 1467 1467 1467 1467 1467 1468 1468 1469 1469 1469 1468 1466 1467 1467 1466 1465 1464 1463 1463 1463 1462 1461 1461 1461 1462 1462 1462 1462 1462 1462 1462 1462 1462 1462 1463 1463 1463 1464 1464 1464
1465 1465 1465 1466 1466 1466 1466 1466 1466 1467 1467 1466 1466 1465 1464 1464 1463 1462 1462 1461 1460 1459 1459 1458 1458 1458 1458 1458 1458 1458 1458 1458 1457 1457 1457 1458 1458 1458 1458 1458 1458 1458 1459
1464 1464 1464 1464 1465 1465 1464 1464 1464 1464 1463 1464 1464 1463 1462 1461 1460 1459 1458 1458 1457 1456 1455 1455 1455 1455 1455 1455 1455 1455 1454 1454 1453 1453 1453 1453 1453 1453 1453 1453 1453 1453 1453
1463 1463 1463 1463 1463 1463 1463 1463 1463 1463 1463 1462 1462 1461 1460 1459 1458 1457 1456 1455 1454 1453 1453 1453 1453 1452 1452 1452 1451 1451 1450 1450 1450 1449 1449 1449 1449 1449 1448 1448 1448 1448 1448
1462 1462 1462 1462 1462 1461 1462 1462 1462 1461 1461 1460 1460 1459 1458 1457 1456 1455 1454 1453 1452 1451 1451 1450 1450 1450 1449 1449 1449 1448 1447 1446 1446 1445 1445 1445 1444 1444 1444 1444 1444 1443 1443
1461 1461 1461 1461 1461 1461 1461 1460 1460 1459 1459 1459 1458 1458 1457 1456 1455 1454 1452 1451 1451 1450 1449 1448 1447 1447 1447 1446 1446 1445 1444 1443 1442 1442 1441 1441 1440 1440 1440 1439 1439 1439 1439
1460 1460 1460 1460 1460 1460 1459 1459 1459 1458 1458 1458 1457 1457 1456 1454 1453 1452 1451 1451 1450 1449 1448 1447 1445 1445 1444 1443 1442 1441 1440 1439 1438 1438 1437 1437 1436 1436 1435 1435 1435 1435 1435
1460 1459 1459 1459 1459 1458 1458 1458 1458 1457 1457 1457 1456 1455 1454 1453 1452 1451 1450 1449 1448 1446 1445 1444 1443 1442 1441 1440 1439 1437 1436 1435 1435 1434 1433 1432 1432 1432 1431 1431 1431 1431 1431
1459 1459 1458 1458 1457 1457 1457 1457 1456 1456 1455 1455 1454 1453 1452 1451 1450 1449 1448 1446 1445 1444 1443 1441 1440 1439 1438 1436 1435 1434 1433 1432 1431 1430 1429 1429 1428 1428 1428 1428 1427 1427 1427
1458 1457 1457 1457 1456 1456 1455 1455 1454 1454 1453 1452 1452 1451 1450 1448 1447 1446 1445 1444 1442 1441 1440 1438 1437 1435 1434 1433 1431 1430 1429 1428 1427 1426 1425 1425 1424 1424 1424 1424 1424 1424 1424
1456 1456 1456 1455 1455 1454 1453 1453 1452 1451 1451 1450 1449 1448 1447 1446 1445 1444 1443 1441 1440 1438 1437 1435 1434 1432 1430 1429 1428 1426 1425 1424 1423 1422 1422 1421 1421 1420 1420 1420 1420 1420 1420